Погода в Тихвине

Россия / Санкт-Петербург и Ленинградская область     59°38′39″N   33°32′31″E
темп.,
°C
ветер,
м/с
пор.,
м/с
влажн.,
%
обл.,
%
осадки,
мм/ч
давл.,
гПа
погр.,
м
3 марта, ср
ср300:00−4зсз310920 0.0 1015301
03:00−4з311959 0.0 1015397
06:00−2зсз5119387 0.1 1013658
09:00−2зсз4109193 0.1 1013733
12:00−1з4888100 0.0 1011712
15:000зюз51085100 0.1 1009827
18:000з51290100 0.1 1005842
21:000з61496100 0.9 10021193
4 марта, чт
чт400:00−2зсз4128996 0.4 1001804
03:00−5зсз4128748 0.4 1002503
06:00−7сз3109329 0.0 1001380
09:00−7сз389446 0.0 1002360
12:00−4сз248797 0.0 1002523
15:00−3ссз248497 0.1 1002652
18:00−5сз2494100 0.2 1002313
21:00−7сз2596100 0.6 1004229
5 марта, пт
пт500:00−7сз239799 0.3 100496
03:00−7сз259697 0.5 1006213
06:00−8сз379599 0.2 1006316
09:00−9сз379489 0.3 1007381
12:00−6сз3586100 0.1 1009641
15:00−6ссз3483100 0.3 1011698
18:00−8ссз239096 0.1 101288
21:00−12сз229549 0.1 101427
6 марта, сб
сб600:00−12з229318 0.0 101525
03:00−12зюз239742 0.0 101596
06:00−11зюз259898 0.1 1015166
09:00−10зюз269592 0.1 1014250
12:00−6юз368160 0.0 1012570
15:00−4юз597768 0.0 10091117
18:00−5ююз61291100 0.1 10031054
21:00−5ююз71593100 1.5 9971275
7 марта, вс
вс700:00−3юз71494100 1.6 9921055
03:00−2юз51296100 3.1 986964
06:00−1юз51196100 2.3 982814
09:00−7з61173100 5.4 9801387
12:00−8зюз5986100 0.2 9811175
15:00−6зсз2588100 0.6 982610
18:00−7сз31094100 0.6 984721
21:00−8ссз71392100 1.2 9891014